Startseite
Über Mich
AHP4
Galerie
Sehschlangen
Tourenbuch
Bookmarks
Elektronik
Bewertung
Geschichten
[Tagesmessung] [Jahreswerte] [Information]

Messwerte vom 26.03.2022

Die letzten Messwerte von 23:58:45 Uhr:
KategorieMesswert
Temperatur [°C]9
Luftdruck [mBar]1015
Sonneneinstrahlung0
Wind [km/h]1 aus Nord
Niederschlag [l/m²]0
rel.Luftfeucht.86.8%
CO2 [ppm]534

Diagramme
Messwerte vom 26.03.2022
Tagesaggregation
KategorieMinimumMaximumSchnittSumme
Temperatur [°C]1219.6646
Luftdruck [mBar]101110171013.5104
Sonneneinstrahlung247109.3792
Wind [km/h]21
rF [%]4095.575.93
Niederschlag [l/m²]0
CO2 [ppm]404759548.8
Einordnung alsVegetationstag

Messungen an benachbarten Tagen: Zur Jahresaggregation 2022
Tabelle aller Messwerte
UhrzeitTemperatur [°C]Luftdruck [mBar]SonneWind [km/h]RichtungRegen [l/m²]rF [%]CO2 [ppm]
00:01:46 3 1013 0 0 O 0 83.7 753
00:04:45 3 1013 0 0 O 0 83.4 750
00:07:46 3 1013 0 0 O 0 83.4 753
00:10:46 3 1013 0 0 O 0 83.6 752
00:13:46 2 1014 0 0 O 0 83.7 759
00:16:49 2 1013 0 0 NW 0 85.1 750
00:19:47 2 1013 0 0 NW 0 85.4 748
00:22:48 3 1014 0 0 NW 0 85.5 748
00:25:47 3 1013 0 0 O 0 85 748
00:28:44 2 1013 0 0 O 0 84.7 749
00:31:45 2 1014 0 0 O 0 84.9 741
00:34:45 2 1014 0 0 O 0 84.7 746
00:37:45 2 1014 0 0 O 0 84.9 740
00:40:47 2 1014 0 0 O 0 85.1 739
00:43:46 2 1014 0 0 O 0 85.2 739
00:46:45 2 1014 0 0 O 0 85.2 734
00:49:47 2 1014 0 0 O 0 85.4 739
00:52:47 2 1013 0 0 O 0 85.4 730
00:55:46 2 1014 0 0 O 0 85.3 720
00:58:45 2 1013 0 0 O 0 85.6 720
01:01:49 2 1014 0 0 O 0 85.8 724
01:04:59 2 1014 0 0 O 0 85.9 732
01:07:47 2 1013 0 0 O 0 85.7 733
01:10:45 2 1014 0 0 O 0 85.7 734
01:13:46 2 1014 0 0 O 0 85.7 725
01:16:46 2 1014 0 0 O 0 86.2 729
01:19:46 2 1014 0 0 O 0 86.7 721
01:22:45 2 1013 0 0 O 0 87 715
01:25:45 2 1014 0 0 S 0 86.9 706
01:28:47 2 1014 0 0 S 0 87 705
01:31:46 2 1013 0 0 S 0 87.3 712
01:34:46 2 1014 0 0 S 0 87.4 710
01:37:48 2 1014 0 0 S 0 87.2 705
01:40:48 2 1014 0 0 S 0 87.1 709
01:43:45 1 1014 0 0 S 0 87.3 711
01:46:46 1 1014 0 0 S 0 87.4 714
01:49:45 1 1014 0 0 S 0 87.4 704
01:52:47 1 1014 0 0 S 0 87.4 712
01:55:45 1 1013 0 0 S 0 87.7 717
01:58:45 1 1014 0 0 S 0 88.1 718
02:01:46 1 1014 0 0 S 0 88.2 718
02:04:47 1 1014 0 0 S 0 89 723
02:07:44 1 1013 0 0 S 0 89.8 718
02:10:50 2 1014 0 0 S 0 89.6 715
02:13:45 2 1013 0 0 S 0 89.4 708
02:16:48 2 1014 0 0 S 0 89.4 710
02:19:46 2 1014 0 0 S 0 89.7 715
02:22:46 2 1013 0 0 S 0 89.8 717
02:25:46 2 1014 0 0 S 0 89.3 716
02:28:47 2 1014 0 0 S 0 89.4 712
02:31:46 2 1013 0 0 S 0 89.4 714
02:34:47 2 1014 0 0 S 0 89.2 713
02:37:46 1 1013 0 0 S 0 89.3 706
02:40:46 1 1013 0 0 S 0 89.5 709
02:43:46 1 1013 0 0 S 0 89.7 705
02:46:46 1 1013 0 0 S 0 89.8 709
02:49:46 2 1013 0 0 S 0 90.1 709
02:52:48 1 1014 0 0 S 0 89.9 699
02:55:46 1 1013 0 0 S 0 89.9 700
02:58:46 1 1014 0 0 S 0 89.9 701
03:01:45 1 1013 0 0 S 0 89.9 702
03:04:47 1 1013 0 0 S 0 89.8 708
03:07:46 1 1014 0 0 S 0 90 703
03:10:46 1 1013 0 0 SW 0 90.3 706
03:13:49 1 1014 0 0 SW 0 90.6 698
03:16:48 1 1014 0 0 SW 0 90.6 700
03:19:46 1 1014 0 0 SW 0 91.4 701
03:22:48 1 1013 0 0 SW 0 91.7 701
03:25:48 1 1013 0 0 SW 0 92.3 697
03:28:48 1 1014 0 0 SW 0 92.6 694
03:31:46 1 1014 0 0 W 0 92.4 701
03:34:48 1 1013 0 0 W 0 92.2 695
03:37:48 1 1014 0 0 SW 0 92.2 688
03:40:46 1 1013 0 0 SW 0 92.8 688
03:43:46 2 1013 0 0 SW 0 93.1 689
03:46:46 2 1013 0 0 SW 0 93.1 691
03:49:50 2 1013 0 2 SW 0 93.1 688
03:52:48 2 1013 0 0 SO 0 92.8 692
03:55:47 2 1013 0 0 S 0 92.8 688
03:58:50 2 1013 0 0 S 0 93.5 686
04:01:46 2 1013 0 0 S 0 93.5 681
04:04:45 2 1013 0 0 W 0 93.4 688
04:07:47 2 1013 0 0 SW 0 93.3 685
04:10:48 2 1013 0 0 O 0 93.4 691
04:13:47 2 1013 0 0 S 0 93.7 691
04:16:48 2 1013 0 0 SO 0 93.9 694
04:19:51 2 1013 0 1 SW 0 93.8 688
04:22:46 2 1013 0 1 SW 0 94 683
04:25:46 2 1013 0 0 SO 0 94.5 677
04:28:47 2 1013 0 1 S 0 94.1 677
04:31:49 2 1013 0 0 SW 0 94 676
04:34:46 3 1013 0 2 SO 0 94 673
04:37:45 3 1013 0 0 S 0 94.1 671
04:40:47 3 1013 0 2 SW 0 94 667
04:43:46 3 1013 0 0 SO 0 93.7 673
04:46:47 3 1013 0 3 SW 0 93.6 679
04:49:48 3 1013 0 2 S 0 93.6 677
04:52:47 3 1013 0 0 S 0 93.5 679
04:55:46 3 1013 0 1 S 0 93.5 684
04:58:47 3 1013 0 0 S 0 93.1 683
05:01:48 3 1013 0 1 SW 0 93.2 685
05:04:47 3 1013 0 0 W 0 93.3 673
05:07:46 3 1013 0 5 SW 0 93.2 670
05:10:47 3 1013 0 2 S 0 93.7 669
05:13:46 3 1013 0 0 SW 0 93.1 664
05:16:45 3 1013 0 1 N 0 92.7 674
05:19:47 3 1013 0 3 W 0 92.2 673
05:22:45 3 1013 0 2 W 0 92.5 677
05:25:45 3 1013 0 4 W 0 92 682
05:28:47 2 1013 0 0 NW 0 92.3 680
05:31:48 2 1013 0 0 NW 0 92.2 673
05:34:45 2 1014 0 0 S 0 92.1 676
05:37:48 2 1013 0 1 SW 0 92.5 679
05:40:48 2 1013 0 2 SW 0 93.1 685
05:43:48 2 1013 4 0 NW 0 93.2 686
05:46:49 2 1014 6 0 W 0 93.4 685
05:49:48 2 1013 10 0 W 0 93.1 688
05:52:48 2 1013 17 0 W 0 92.9 683
05:55:47 2 1014 25 0 W 0 92.9 686
05:58:45 2 1014 35 0 W 0 93.1 676
06:01:49 1 1013 47 0 SO 0 93.4 669
06:04:48 1 1013 59 0 SO 0 93.6 677
06:07:49 1 1014 72 0 SO 0 93.7 677
06:10:48 1 1014 84 0 SO 0 94 676
06:13:46 1 1013 96 0 S 0 94.3 662
06:16:46 2 1013 108 0 S 0 94.7 665
06:19:48 2 1013 119 1 S 0 94.9 663
06:22:50 2 1013 129 1 SW 0 95.2 664
06:25:48 2 1013 136 0 S 0 95.4 668
06:28:49 2 1013 143 0 W 0 95.5 671
06:31:49 2 1014 148 2 SW 0 95.4 679
06:34:49 2 1013 152 0 SO 0 95.2 681
06:37:47 2 1013 156 0 W 0 95.1 678
06:40:47 2 1013 159 0 W 0 94.9 677
06:43:48 2 1013 163 0 SW 0 94.3 670
06:46:49 2 1014 168 1 W 0 94.2 665
06:49:48 3 1014 171 0 W 0 94.1 659
06:52:48 3 1013 173 0 S 0 93.9 656
06:55:48 3 1013 176 1 SW 0 93.7 659
06:58:47 3 1014 177 0 SW 0 93.7 661
07:01:49 3 1014 179 0 SW 0 93.6 659
07:04:49 3 1014 181 0 SW 0 93.5 652
07:07:49 3 1013 182 0 SW 0 93.2 639
07:10:49 3 1014 182 0 SW 0 93.2 633
07:13:47 3 1014 184 0 N 0 93.2 635
07:16:48 3 1014 185 0 SO 0 93 656
07:19:49 3 1014 186 0 SO 0 93.1 631
07:22:47 4 1014 186 0 S 0 93.2 649
07:25:49 4 1014 187 1 SO 0 93.2 671
07:28:47 4 1014 188 0 S 0 92.7 694
07:31:47 4 1014 188 1 SW 0 92.5 697
07:34:49 4 1014 187 0 S 0 92.2 689
07:37:48 4 1013 187 1 SW 0 92 688
07:40:49 4 1013 188 1 SO 0 91.8 691
07:43:49 5 1014 189 1 S 0 91.7 702
07:46:49 5 1014 189 1 SO 0 91.5 702
07:49:47 5 1014 190 0 W 0 91.3 710
07:52:49 5 1014 190 1 SW 0 91 717
07:55:49 5 1015 191 0 SW 0 90.8 713
07:58:46 5 1014 191 1 O 0 90.5 654
08:01:49 5 1013 192 1 S 0 89.9 638
08:04:50 6 1014 192 4 SW 0 89.6 682
08:07:48 6 1013 192 0 O 0 88.7 694
08:10:52 6 1014 192 1 NW 0 88.1 689
08:13:49 6 1013 193 5 W 0 88 678
08:16:48 6 1014 194 1 NO 0 87.4 668
08:19:49 6 1014 194 0 SW 0 87.3 659
08:22:49 6 1013 195 5 SW 0 87.2 652
08:25:47 7 1014 195 2 W 0 86.8 650
08:28:50 7 1014 195 4 SO 0 85.8 650
08:31:48 7 1014 196 1 S 0 85.6 650
08:34:47 7 1014 196 4 S 0 85 644
08:37:48 7 1014 196 5 SW 0 84.8 642
08:40:49 7 1014 196 1 NW 0 83.3 638
08:43:48 7 1014 197 3 W 0 82.5 632
08:46:50 8 1014 197 4 NW 0 82.5 633
08:49:51 8 1014 197 8 NW 0 81.6 636
08:52:48 8 1014 197 2 SW 0 81.2 632
08:55:47 8 1014 197 3 SW 0 81 629
08:58:49 8 1014 197 2 SO 0 80 630
09:01:49 8 1014 197 5 SW 0 79.8 625
09:04:48 8 1014 198 11 NW 0 79.4 621
09:07:49 9 1014 198 3 W 0 78.8 609
09:10:46 9 1013 198 7 W 0 79 611
09:13:49 9 1014 198 7 NW 0 79.2 613
09:16:47 9 1014 199 2 SW 0 78.6 618
09:19:48 9 1014 199 6 W 0 78.3 612
09:22:50 9 1014 200 2 SW 0 78.2 609
09:25:48 10 1014 200 6 W 0 77.4 604
09:28:49 10 1014 200 8 W 0 77.1 607
09:31:48 10 1014 201 4 W 0 76 601
09:34:48 10 1014 202 5 S 0 74.4 594
09:37:51 10 1015 202 5 SW 0 74 598
09:40:47 10 1014 203 2 W 0 74.3 603
09:43:49 10 1015 204 2 SW 0 73.2 592
09:46:50 10 1014 205 6 SW 0 70.7 583
09:49:49 11 1014 205 8 W 0 72.7 582
09:52:49 11 1014 205 7 SW 0 72.7 580
09:55:51 11 1014 205 7 NW 0 71.6 581
09:58:49 11 1013 205 7 NW 0 71.3 581
10:01:50 11 1014 205 5 0 69.6 583
10:04:50 11 1014 205 9 SW 0 68.2 580
10:07:48 11 1014 205 4 NW 0 69.5 568
10:10:48 12 1013 206 9 W 0 69.7 573
10:13:47 12 1014 206 8 O 0 68.7 568
10:16:48 12 1014 205 5 W 0 67.2 565
10:19:49 12 1013 206 4 SW 0 68 562
10:22:48 12 1014 206 2 SW 0 67.5 559
10:25:48 12 1014 206 7 S 0 67.3 562
10:28:47 12 1013 206 3 SW 0 67.3 553
10:31:47 13 1014 206 9 SW 0 67.7 550
10:34:50 13 1013 206 2 SW 0 67 548
10:37:48 13 1014 207 12 S 0 66.5 547
10:40:47 13 1014 207 8 NW 0 64.7 553
10:43:50 13 1014 207 10 NW 0 64.7 551
10:46:48 13 1013 207 7 W 0 63.8 551
10:49:48 13 1014 208 5 SW 0 63.8 541
10:52:48 13 1013 208 3 SW 0 64.3 536
10:55:49 14 1014 208 6 NW 0 63.3 536
10:58:48 14 1013 209 7 SW 0 62.9 533
11:01:48 14 1014 209 15 NW 0 62.9 530
11:04:48 14 1014 209 10 NW 0 63.2 529
11:07:51 14 1014 209 0 W 0 61.7 525
11:10:51 14 1014 209 10 SW 0 61.7 512
11:13:47 15 1013 209 3 O 0 61.5 512
11:16:48 15 1013 210 4 SW 0 60.7 512
11:19:45 15 1013 210 4 S 0 60.8 517
11:22:47 15 1014 210 5 S 0 60.2 513
11:25:47 15 1014 210 3 W 0 59.4 513
11:28:49 15 1013 211 12 NW 0 58.3 512
11:31:47 16 1014 211 7 S 0 55.3 515
11:34:48 16 1013 211 10 SW 0 55.2 519
11:37:32 14 1013 211 15 SO 0 48.2 513
11:40:50 17 1013 212 2 NW 0 53.6 512
11:43:48 17 1013 212 13 W 0 53.5 504
11:46:49 17 1013 212 8 NW 0 52.2 505
11:49:31 15 1013 213 4 W 0 40 500
11:52:47 18 1013 214 2 O 0 51 498
11:55:50 18 1013 215 6 S 0 48.7 489
11:58:48 18 1014 215 10 NW 0 48.1 495
12:01:49 17 1013 215 16 W 0 47.2 499
12:04:48 17 1013 216 9 W 0 48.4 495
12:07:49 18 1013 217 11 NW 0 49.6 488
12:10:46 18 1013 218 4 W 0 49 516
12:13:47 18 1013 218 3 S 0 47.8 509
12:16:48 18 1013 218 4 SW 0 46.7 504
12:19:48 18 1013 219 17 NW 0 45.6 506
12:22:48 18 1013 221 4 W 0 48.1 507
12:25:49 19 1013 225 11 SW 0 46.3 501
12:28:47 19 1013 229 10 W 0 45.8 503
12:31:48 20 1013 230 6 W 0 46.2 498
12:34:49 20 1013 230 15 SW 0 45.2 495
12:37:47 20 1013 230 6 W 0 44.3 500
12:40:49 20 1013 231 2 NO 0 43.9 501
12:43:49 20 1013 236 6 SO 0 43.9 503
12:46:47 20 1013 236 13 W 0 43.5 494
12:49:46 20 1013 236 9 N 0 43.9 484
12:52:46 20 1013 234 4 N 0 45.7 481
12:55:49 19 1013 234 9 W 0 45.3 477
12:58:48 19 1013 232 14 SW 0 46.4 478
13:01:48 19 1013 233 6 W 0 47.3 489
13:04:49 19 1013 234 5 W 0 46.9 489
13:07:47 19 1013 231 8 0 46.6 486
13:10:47 19 1013 232 13 W 0 46.8 483
13:13:46 18 1013 234 5 W 0 49.4 474
13:16:47 18 1013 228 9 W 0 49.9 483
13:19:47 18 1013 231 4 SW 0 50.6 486
13:22:51 18 1013 238 21 W 0 50.1 483
13:25:47 18 1013 236 10 N 0 50 473
13:28:48 18 1013 234 10 SW 0 49.7 474
13:31:50 18 1013 237 10 N 0 49 462
13:34:47 18 1013 237 6 W 0 48.8 460
13:37:47 19 1013 236 6 SW 0 50.1 464
13:40:51 19 1013 239 14 NW 0 48.2 463
13:43:48 19 1013 240 20 W 0 47.6 472
13:46:47 19 1013 239 9 NW 0 47.9 465
13:49:49 19 1013 234 10 NW 0 47.9 468
13:52:48 19 1013 237 1 W 0 47.8 460
13:55:47 18 1013 240 6 N 0 48.8 460
13:58:48 18 1013 242 6 W 0 48.8 457
14:01:47 18 1013 240 2 S 0 48.4 453
14:04:48 19 1013 244 3 NO 0 48.5 453
14:07:48 20 1013 236 12 W 0 47.6 459
14:10:49 19 1013 236 19 NW 0 46.2 460
14:13:49 19 1013 234 3 SW 0 47.1 451
14:16:48 18 1013 234 14 W 0 48.7 452
14:19:47 18 1011 241 8 W 0 48.8 452
14:22:49 19 1013 234 6 W 0 50.1 463
14:25:48 19 1013 235 6 NW 0 51.1 462
14:28:49 19 1013 240 8 NW 0 50.9 457
14:31:47 19 1013 234 6 W 0 50.1 451
14:34:48 19 1013 237 4 S 0 49.5 442
14:37:49 19 1013 245 4 NW 0 49.4 442
14:40:48 19 1013 246 7 SW 0 49.8 442
14:43:47 20 1013 246 0 O 0 48.8 448
14:46:51 21 1013 241 9 NW 0 47.4 451
14:49:47 20 1013 246 2 O 0 47.2 450
14:52:48 21 1013 246 8 S 0 45.9 447
14:55:49 21 1013 239 6 SO 0 45.2 442
14:58:48 21 1013 246 9 W 0 45.3 442
15:01:47 20 1013 237 7 0 45.8 439
15:04:48 19 1013 237 11 W 0 48.3 433
15:07:49 19 1013 238 16 NW 0 48.9 433
15:10:49 19 1013 243 12 NW 0 50.9 439
15:13:47 18 1013 237 12 N 0 51.9 442
15:16:48 18 1013 234 10 N 0 53.6 445
15:19:48 17 1013 236 3 W 0 54.9 434
15:22:46 17 1013 237 14 W 0 55.4 442
15:25:50 17 1013 234 19 NW 0 55.7 437
15:28:50 17 1013 239 11 NW 0 56.2 439
15:31:47 17 1013 242 11 NW 0 57.3 431
15:34:53 17 1013 246 20 NW 0 57.7 430
15:37:50 17 1013 234 15 NW 0 58 423
15:40:50 17 1013 236 19 W 0 58.5 433
15:43:49 17 1013 241 10 NW 0 58.5 430
15:46:48 17 1013 245 15 SW 0 58.6 427
15:49:49 17 1013 233 7 SW 0 59.3 424
15:52:51 17 1013 234 9 NW 0 59.2 430
15:55:47 17 1013 247 11 W 0 59.7 431
15:58:48 17 1013 246 14 S 0 59.6 434
16:01:48 17 1013 244 6 SW 0 59 422
16:04:50 17 1013 246 17 W 0 58.5 413
16:07:47 17 1013 247 13 NW 0 58 407
16:10:50 17 1013 241 8 NW 0 58.5 408
16:13:47 17 1013 247 2 NW 0 58.3 404
16:16:48 18 1013 247 5 W 0 58.2 410
16:19:50 18 1013 247 12 W 0 57.3 407
16:22:46 18 1013 246 7 SW 0 56.4 410
16:25:48 17 1013 246 10 NW 0 57 407
16:28:47 17 1012 246 8 N 0 58.5 413
16:31:47 17 1013 245 7 NW 0 59.7 413
16:34:47 17 1013 245 9 W 0 60 410
16:37:47 16 1013 245 7 NW 0 60.9 407
16:40:48 17 1012 242 18 W 0 60.8 407
16:43:50 17 1013 245 15 NW 0 61 407
16:46:50 17 1013 246 13 NW 0 60.2 410
16:49:51 17 1013 246 15 NW 0 59.9 415
16:52:50 17 1012 245 9 NW 0 60 415
16:55:47 17 1013 246 11 NW 0 59.7 404
16:58:48 17 1013 230 7 W 0 59.3 407
17:01:50 17 1013 214 6 NW 0 58.5 407
17:04:48 16 1013 211 16 NW 0 59.5 404
17:07:48 16 1013 224 15 NW 0 60.2 407
17:10:47 16 1012 216 7 W 0 61.6 407
17:13:48 16 1013 205 6 N 0 62.2 407
17:16:45 16 1013 223 6 N 0 62.4 418
17:19:50 15 1013 202 20 NW 0 63.4 415
17:22:47 15 1013 201 7 N 0 64.1 413
17:25:48 15 1013 205 5 NW 0 64.7 412
17:28:46 15 1013 191 10 O 0 65.1 415
17:31:45 15 1013 178 8 0 65.3 416
17:34:47 15 1013 176 10 W 0 65.8 415
17:37:51 15 1013 173 10 NW 0 66.1 407
17:40:45 15 1012 180 11 N 0 66.5 404
17:43:50 15 1013 201 5 NW 0 67.1 407
17:46:46 15 1013 203 11 N 0 67.2 419
17:49:48 15 1013 194 5 NW 0 67.6 418
17:52:49 15 1013 174 3 NW 0 67.8 430
17:55:47 14 1013 164 4 SW 0 68 439
17:58:49 14 1013 150 11 NW 0 68.6 444
18:01:47 14 1013 146 10 W 0 68.9 442
18:04:48 14 1013 147 11 W 0 69.5 444
18:07:47 14 1013 145 11 W 0 69.8 451
18:10:46 14 1013 154 6 W 0 70.2 451
18:13:47 14 1013 163 5 W 0 70.5 459
18:16:46 14 1013 167 9 W 0 70.8 471
18:19:47 14 1013 164 5 NW 0 71.3 474
18:22:46 13 1013 162 5 W 0 71.7 447
18:25:45 13 1013 157 3 W 0 71.9 442
18:28:48 13 1013 147 6 W 0 72.4 447
18:31:46 13 1013 137 8 W 0 73.3 465
18:34:45 13 1013 126 5 W 0 73.4 477
18:37:49 13 1013 121 5 NW 0 73.2 483
18:40:48 13 1013 38 9 NW 0 74.1 480
18:43:50 13 1013 31 4 NW 0 74.3 454
18:46:47 13 1013 24 6 N 0 74.5 404
18:49:49 12 1013 18 2 NW 0 75.2 404
18:52:49 12 1013 13 1 NW 0 75.2 415
18:55:48 12 1013 6 3 NW 0 75.7 427
18:58:47 12 1013 6 3 NW 0 76.3 436
19:01:48 12 1013 15 2 NO 0 76.8 433
19:04:49 12 1013 9 7 NW 0 77.1 428
19:07:48 12 1013 6 2 NW 0 77.3 439
19:10:46 12 1013 4 1 NW 0 76.7 439
19:13:46 11 1013 5 2 NW 0 76.7 434
19:16:48 11 1013 8 1 N 0 76.9 431
19:19:47 11 1013 6 0 W 0 76.9 428
19:22:47 11 1013 4 0 SO 0 77.6 422
19:25:48 10 1013 0 1 W 0 78.2 416
19:28:47 10 1013 0 0 SW 0 78.3 410
19:31:46 10 1013 0 1 NW 0 79.4 413
19:34:47 10 1013 0 2 NW 0 80.8 418
19:37:47 10 1013 0 4 NW 0 81.5 418
19:40:49 10 1013 7 3 NW 0 81.3 411
19:43:47 10 1013 0 3 NW 0 81.3 413
19:46:46 10 1013 0 1 NW 0 81.6 410
19:49:48 10 1013 0 2 NW 0 81.7 410
19:52:48 10 1013 0 1 NW 0 81.9 410
19:55:47 10 1013 0 0 NW 0 82.1 416
19:58:45 10 1013 0 0 SW 0 82.1 415
20:01:48 9 1013 0 1 SW 0 82.6 413
20:04:47 9 1013 0 2 W 0 82.8 416
20:07:48 9 1013 0 3 NW 0 83.3 411
20:10:48 9 1013 0 2 N 0 86.7 413
20:13:48 10 1013 0 1 NW 0 87.6 410
20:16:46 10 1013 0 3 W 0 86 413
20:19:46 10 1013 0 4 NW 0 85.4 411
20:22:46 10 1013 0 5 N 0 86.5 416
20:25:47 10 1013 0 5 N 0 86.6 414
20:28:47 10 1013 0 4 N 0 86.3 416
20:31:46 10 1013 0 4 N 0 86.2 413
20:34:46 10 1013 6 5 W 0 86.3 413
20:37:47 10 1013 3 3 W 0 86 416
20:40:47 10 1014 0 6 NW 0 85.7 405
20:43:49 10 1014 0 5 NW 0 85.2 406
20:46:47 10 1014 0 2 NW 0 85.1 407
20:49:47 11 1013 0 9 NW 0 84.7 407
20:52:46 11 1014 0 5 N 0 84.7 406
20:55:46 11 1014 5 12 NW 0 84.4 412
20:58:47 11 1014 0 13 W 0 84.4 416
21:01:47 11 1014 0 2 N 0 84.1 415
21:04:48 11 1014 0 2 NW 0 83.9 415
21:07:47 11 1014 0 3 NW 0 83.9 407
21:10:46 10 1013 0 3 W 0 83.9 407
21:13:46 10 1014 0 0 SO 0 83.5 406
21:16:46 10 1014 0 0 NW 0 83.7 404
21:19:47 10 1013 0 4 NW 0 84.7 404
21:22:46 10 1014 0 2 N 0 84.8 407
21:25:46 10 1014 0 3 N 0 84.8 410
21:28:46 10 1014 0 0 O 0 84.9 407
21:31:47 10 1013 0 0 N 0 84.3 410
21:34:46 10 1014 0 0 SO 0 84.3 413
21:37:46 10 1014 0 2 SW 0 84.6 412
21:40:45 10 1015 0 3 N 0 85.4 413
21:43:48 10 1015 3 2 NW 0 84.6 406
21:46:48 10 1014 3 3 N 0 84.2 410
21:49:49 10 1015 0 1 NO 0 83.9 406
21:52:43 10 1015 0 5 N 0 83.7 407
21:55:49 10 1014 0 8 NW 0 83.5 410
21:58:48 10 1015 0 2 NW 0 83.5 410
22:01:48 10 1015 0 4 O 0 83.1 413
22:04:50 10 1014 0 2 SW 0 83.2 409
22:07:49 10 1015 3 2 NO 0 83.1 404
22:10:51 10 1015 3 10 0 83 404
22:13:46 10 1015 0 3 0 83.1 407
22:16:49 10 1016 0 6 NW 0 83.1 407
22:19:46 10 1015 0 2 N 0 83.1 407
22:22:45 10 1015 0 3 NO 0 83.2 413
22:25:47 10 1015 0 4 S 0 83.4 407
22:28:45 10 1015 0 1 W 0 83.4 407
22:31:46 10 1016 3 3 O 0 83.4 407
22:34:46 10 1016 0 4 NO 0 83.4 413
22:37:48 10 1015 0 2 NO 0 83.3 417
22:40:49 10 1016 9 3 NW 0 83.3 421
22:43:47 10 1016 0 2 NW 0 83.6 428
22:46:48 10 1016 0 5 NW 0 83.9 431
22:49:47 10 1014 0 5 NW 0 84.1 436
22:52:46 10 1015 0 4 N 0 84.1 442
22:55:50 10 1016 0 0 O 0 84.2 448
22:58:47 10 1015 0 1 NW 0 84.5 454
23:01:47 10 1016 0 1 SW 0 84.5 446
23:04:45 10 1015 0 3 NO 0 84.6 451
23:07:47 10 1017 0 4 N 0 84.7 460
23:10:46 10 1016 0 2 N 0 84.7 469
23:13:46 9 1016 0 5 N 0 84.6 477
23:16:44 9 1015 0 0 N 0 84.6 477
23:19:46 9 1016 0 5 O 0 85.1 486
23:22:46 9 1015 0 0 N 0 85 487
23:25:50 9 1015 0 1 N 0 85.1 486
23:28:47 9 1015 0 1 NO 0 85.6 483
23:31:51 9 1016 0 0 NW 0 85.6 483
23:34:45 9 1016 0 0 S 0 85.3 497
23:37:47 9 1015 0 0 NO 0 85.4 509
23:40:45 9 1016 0 4 W 0 85.6 510
23:43:48 9 1015 0 0 NW 0 85.4 515
23:46:47 9 1016 0 0 N 0 85.3 527
23:49:47 9 1015 0 2 N 0 85.4 533
23:52:49 9 1015 0 1 NO 0 86.4 530
23:55:47 9 1016 0 2 NW 0 86.3 531
23:58:45 9 1015 0 1 N 0 86.8 534

Letzte Änderung : 22-Jul-2022
Copyright Jens Köhler, Wolfsburg, Obere Dorfstraße 10d